軌道要素
Epoch 2022 Jan. 21.0 TT = JDT 2459600.5
T 2021 Aug. 25.20642 TT Rudenko
q 2.1679687 (2000.0) P Q
n 0.14568233 Peri. 8.08208 +0.95657897 +0.28087846
a 3.5771031 Node 335.17424 -0.27672150 +0.79123679
e 0.3939317 Incl. 10.68854 -0.09155270 +0.54318656
P 6.77
From 897 observations 2001 Aug. 17-2022 Jan. 15, mean residual 0".8.
Nongravitational parameters A1 = +0.75, A2 = -0.1498.
|